Lancaster, PA

3:37 PM EDT on August 20, 2017 (GMT -0400)
Lancaster

Weather History for KLNS - March, 2013

Change the Weather History Date:

Sunday, March 31, 2013

  Actual Average Record
Temperature  
Mean Temperature 43 °F -  
Max Temperature 53 °F 59 °F 83 °F (1986)
Min Temperature 34 °F 38 °F 25 °F (1991)
Degree Days  
Heating Degree Days 22    
Moisture  
Dew Point 39 °F    
Average Humidity 80    
Maximum Humidity 96    
Minimum Humidity 46    
Precipitation  
Precipitation 0.04 in - - ()
Sea Level Pressure  
Sea Level Pressure 29.84 in    
Wind  
Wind Speed 6 mph (SE)    
Max Wind Speed 15 mph    
Max Gust Speed -    
Visibility 5 miles    
Events Rain    
Averages and records for this station are not official NWS values.
T = Trace of Precipitation, MM = Missing Value Source: NWS Daily Summary

Daily Weather History Graph

Daily Weather History Graph

Search for Another Location

Airport or City:

Trip Planner

Search our weather history database for the weather conditions in past years. The results will help you decide how hot, cold, wet, or windy it might be!

Date:

Astronomy

Mar. 31, 2013 Rise Set
Actual Time 6:50 AM EDT 7:28 PM EDT
Civil Twilight 6:23 AM EDT 7:56 PM EDT
Nautical Twilight 5:50 AM EDT 8:28 PM EDT
Astronomical Twilight 5:17 AM EDT 9:01 PM EDT
Moon No Moon Rise 9:35 AM EDT (3/31)
Length of Visible Light 13h 33m
Length of Day
12h 38m
Waning Gibbous, 78% of the Moon is Illuminated
Mar 31
Waning Gibbous
Apr 3
Last Quarter
Apr 10
New
Apr 18
First Quarter
Apr 25
Full

Hourly Weather History & Observations

Time (EDT) Temp. Windchill Dew Point Humidity Pressure Visibility Wind Dir Wind Speed Gust Speed Precip Events Conditions
12:53 AM 37.9 °F 35.5 °F 25.0 °F 60% 30.12 in 9.0 mi ENE 3.5 mph - N/A   Clear
1:53 AM 37.0 °F 34.5 °F 25.0 °F 62% 30.11 in 8.0 mi East 3.5 mph - N/A   Clear
2:53 AM 35.1 °F 31.0 °F 25.0 °F 67% 30.10 in 8.0 mi East 4.6 mph - N/A   Clear
3:53 AM 36.0 °F 32.1 °F 25.0 °F 64% 30.08 in 8.0 mi East 4.6 mph - N/A   Clear
4:53 AM 35.1 °F 32.2 °F 26.1 °F 70% 30.07 in 8.0 mi East 3.5 mph - N/A   Clear
5:53 AM 34.0 °F 29.8 °F 27.0 °F 75% 30.05 in 7.0 mi East 4.6 mph - N/A   Clear
6:53 AM 34.0 °F 31.0 °F 27.0 °F 75% 30.05 in 7.0 mi East 3.5 mph - N/A   Clear
7:53 AM 36.0 °F 32.1 °F 28.9 °F 76% 30.04 in 5.0 mi East 4.6 mph - N/A   Haze
8:53 AM 42.1 °F 37.1 °F 33.1 °F 70% 30.02 in 7.0 mi SE 8.1 mph - N/A   Clear
9:53 AM 48.9 °F - 28.9 °F 46% 29.99 in 10.0 mi SSE 15.0 mph - N/A   Scattered Clouds
10:53 AM 51.1 °F - 33.1 °F 50% 29.96 in 10.0 mi South 15.0 mph - N/A   Scattered Clouds
11:53 AM 52.0 °F - 34.0 °F 50% 29.95 in 10.0 mi South 15.0 mph - N/A   Overcast
12:53 PM 50.0 °F - 35.1 °F 57% 29.92 in 10.0 mi South 5.8 mph - 0.00 in   Overcast
1:53 PM 52.0 °F - 37.0 °F 57% 29.87 in 10.0 mi SSE 11.5 mph - N/A   Overcast
2:53 PM 51.1 °F - 39.0 °F 63% 29.82 in 10.0 mi ESE 9.2 mph - 0.00 in Rain Light Rain
3:53 PM 48.9 °F - 42.1 °F 77% 29.80 in 5.0 mi ESE 5.8 mph - 0.01 in Rain Light Rain
4:23 PM 48.2 °F - 42.8 °F 82% 29.78 in 6.0 mi SE 11.5 mph - 0.01 in Rain Light Rain
4:53 PM 48.0 °F - 43.0 °F 83% 29.77 in 3.0 mi SE 9.2 mph - 0.01 in Rain Light Rain
5:00 PM 46.4 °F 41.9 °F 42.8 °F 87% 29.76 in 2.5 mi SE 9.2 mph - 0.00 in Rain Light Rain
5:25 PM 46.4 °F 42.9 °F 44.6 °F 93% 29.75 in 3.0 mi ESE 6.9 mph - 0.01 in Rain Light Rain
5:32 PM 46.4 °F 41.9 °F 44.6 °F 93% 29.75 in 3.0 mi ESE 9.2 mph - 0.01 in Rain Light Rain
5:37 PM 46.4 °F 42.4 °F 44.6 °F 93% 29.74 in 2.5 mi ESE 8.1 mph - 0.01 in Rain Light Rain
5:48 PM 46.4 °F 42.4 °F 44.6 °F 93% 29.74 in 1.5 mi ESE 8.1 mph - 0.01 in Rain Light Rain
5:53 PM 46.9 °F - 44.1 °F 90% 29.75 in 1.8 mi ESE 6.9 mph - 0.01 in Rain Light Rain
6:29 PM 46.4 °F 45.2 °F 44.6 °F 93% 29.74 in 2.0 mi ESE 3.5 mph - 0.00 in Rain Light Rain
6:43 PM 46.4 °F 44.3 °F 44.6 °F 93% 29.73 in 1.8 mi ESE 4.6 mph - 0.00 in   Overcast
6:53 PM 46.9 °F - 44.1 °F 90% 29.74 in 1.8 mi SE 4.6 mph - 0.00 in   Overcast
7:29 PM 46.4 °F 43.5 °F 44.6 °F 93% 29.72 in 3.0 mi South 5.8 mph - N/A   Overcast
7:40 PM 46.4 °F 44.3 °F 44.6 °F 93% 29.73 in 2.5 mi South 4.6 mph - 0.01 in Rain Light Rain
7:53 PM 46.0 °F - 45.0 °F 96% 29.73 in 2.0 mi Calm Calm - 0.01 in   Overcast
8:07 PM 46.4 °F 45.2 °F 44.6 °F 93% 29.73 in 2.5 mi South 3.5 mph - N/A   Overcast
8:24 PM 46.4 °F - 44.6 °F 93% 29.72 in 1.8 mi Calm Calm - N/A   Overcast
8:53 PM 46.0 °F 44.8 °F 44.1 °F 93% 29.74 in 1.8 mi WSW 3.5 mph - 0.00 in   Overcast
9:19 PM 46.4 °F 43.5 °F 44.6 °F 93% 29.74 in 2.0 mi WSW 5.8 mph - N/A   Overcast
9:53 PM 46.9 °F - 44.1 °F 90% 29.75 in 2.5 mi West 9.2 mph - N/A   Overcast
10:01 PM 46.4 °F 41.9 °F 44.6 °F 93% 29.74 in 2.5 mi West 9.2 mph - N/A   Overcast
10:08 PM 46.4 °F 41.5 °F 44.6 °F 93% 29.74 in 3.0 mi West 10.4 mph - N/A   Overcast
10:36 PM 46.4 °F 42.4 °F 44.6 °F 93% 29.75 in 2.5 mi West 8.1 mph - N/A   Overcast
10:53 PM 46.9 °F - 44.1 °F 90% 29.75 in 2.0 mi West 6.9 mph - N/A   Overcast
11:53 PM 45.0 °F 40.1 °F 43.0 °F 93% 29.74 in 2.5 mi West 9.2 mph - N/A   Overcast